DW5256 Weather Reports


Display with metric or nautical units.
time (UTC)temp
F
wind
direction
speed
MPH
gust
MPH
rain 1hr
in
rain 24hr
in
rain mn
in
humidity
%
barometer
mb
20260502205031 72 296 4.0 14.0 0.00 0.00 0.00 67 1010.5
20260502203528 73 291 5.0 10.0 0.00 0.00 0.00 66 1010.6
20260502202021 72 307 1.0 9.0 0.00 0.00 0.00 68 1010.5
20260502200516 72 327 1.0 8.0 0.00 0.00 0.00 67 1010.9
20260502195028 71 315 3.0 9.0 0.00 0.00 0.00 68 1011.1
20260502193520 70 227 2.0 8.0 0.00 0.00 0.00 69 1011.2
20260502192032 69 273 2.0 7.0 0.00 0.00 0.00 71 1011.4
20260502190527 69 287 1.0 9.0 0.00 0.00 0.00 72 1011.8
20260502185020 68 287 3.0 9.0 0.00 0.00 0.00 71 1012.0
20260502183523 66 299 0.0 0.0 0.00 0.00 0.00 75 1012.0
20260502182049 64 309 0.0 5.0 0.00 0.00 0.00 77 1012.4
20260502180520 63 55 0.0 6.0 0.00 0.00 0.00 79 1012.5
20260502170520 61 321 0.0 3.0 0.00 0.00 0.00 83 1013.0
20260502163528 61 330 0.0 0.0 0.00 0.00 0.00 84 1013.1
20260502162017 60 329 2.0 4.0 0.00 0.00 0.00 84 1013.3
20260502160532 60 327 0.0 0.0 0.00 0.00 0.00 84 1013.2
20260502152031 59 360 0.0 0.0 0.00 0.00 0.00 85 1013.1
20260502150530 59 360 0.0 0.0 0.00 0.00 0.00 85 1012.9
20260502130517 59 271 0.0 0.0 0.00 0.00 0.00 84 1012.1
20260502123517 60 271 0.0 0.0 0.00 0.00 0.00 84 1012.1
20260502122033 59 271 0.0 0.0 0.00 0.00 0.00 84 1012.0
20260502120518 59 271 0.0 0.0 0.00 0.00 0.00 84 1011.9
20260502115018 59 271 0.0 0.0 0.00 0.00 0.00 84 1011.9
20260502113525 59 271 0.0 0.0 0.00 0.00 0.00 84 1011.7
20260502112024 59 271 0.0 0.0 0.00 0.00 0.00 83 1011.8
20260502110524 60 271 0.0 0.0 0.00 0.00 0.00 83 1011.8
20260502105021 60 271 0.0 0.0 0.00 0.00 0.00 83 1011.8
20260502103521 60 271 0.0 0.0 0.00 0.00 0.00 83 1011.6
20260502102021 60 271 0.0 0.0 0.00 0.00 0.00 83 1011.7
20260502100524 60 271 0.0 0.0 0.00 0.00 0.00 83 1011.5
20260502090526 60 271 0.0 0.0 0.00 0.00 0.00 83 1011.6
20260502070523 61 269 0.0 0.0 0.00 0.00 0.00 81 1012.4
20260502065053 61 269 0.0 0.0 0.00 0.00 0.00 81 1012.4
20260502063515 60 269 0.0 0.0 0.00 0.00 0.00 81 1012.1
20260502062033 60 269 0.0 0.0 0.00 0.00 0.00 81 1012.2
20260502060538 61 269 0.0 0.0 0.00 0.00 0.00 81 1012.3
20260502055016 61 269 0.0 0.0 0.00 0.00 0.00 81 1012.4
20260502053534 61 269 0.0 0.0 0.00 0.00 0.00 81 1012.4
20260502052047 61 269 0.0 0.0 0.00 0.00 0.00 81 1012.3
20260502050531 61 269 0.0 0.0 0.00 0.00 0.00 80 1012.3
20260502045024 61 269 0.0 0.0 0.00 0.00 0.00 80 1012.3
20260502043521 61 269 0.0 0.0 0.00 0.00 0.00 80 1012.2
20260502042018 61 268 0.0 0.0 0.00 0.00 0.00 79 1012.1
20260502040545 62 268 0.0 0.0 0.00 0.00 0.00 79 1012.0
20260502035023 62 268 0.0 0.0 0.00 0.00 0.00 79 1011.9
20260502033549 62 265 0.0 0.0 0.00 0.00 0.00 79 1011.7
20260502032028 62 264 0.0 0.0 0.00 0.00 0.00 78 1011.6
20260502030530 62 263 0.0 0.0 0.00 0.00 0.00 78 1011.3
20260502025029 62 263 0.0 0.0 0.00 0.00 0.00 77 1011.2
20260502023523 63 260 0.0 0.0 0.00 0.00 0.00 76 1011.2
20260502022022 63 225 0.0 5.0 0.00 0.00 0.00 75 1011.2
20260502020523 65 260 0.0 8.0 0.00 0.00 0.00 73 1010.9
20260502015021 66 262 1.0 9.0 0.00 0.00 0.00 72 1010.9
20260502013522 68 273 0.0 7.0 0.00 0.00 0.00 70 1010.8
20260502012020 68 267 0.0 7.0 0.00 0.00 0.00 69 1010.6
20260502010520 69 215 0.0 1.0 0.00 0.00 0.00 69 1010.6
20260502005021 69 245 3.0 9.0 0.00 0.00 0.00 68 1010.5
20260502003521 69 232 1.0 8.0 0.00 0.00 0.00 68 1010.4
20260502002020 70 233 0.0 7.0 0.00 0.00 0.00 67 1010.3
20260502000522 71 200 0.0 9.0 0.00 0.00 0.00 65 1010.1
20260501235022 72 242 0.0 9.0 0.00 0.00 0.00 65 1010.2
20260501233519 72 243 1.0 8.0 0.00 0.00 0.00 65 1010.1
20260501232016 72 242 2.0 9.0 0.00 0.00 0.00 63 1010.2
20260501230516 73 271 1.0 8.0 0.00 0.00 0.00 62 1010.4
20260501223535 73 254 5.0 10.0 0.00 0.00 0.00 61 1010.6
20260501222032 72 260 4.0 10.0 0.00 0.00 0.00 62 1010.7
20260501220551 72 242 3.0 10.0 0.00 0.00 0.00 63 1010.8
20260501215026 72 242 0.0 11.0 0.00 0.00 0.00 63 1010.8
20260501213525 72 237 4.0 14.0 0.00 0.00 0.00 62 1011.1
20260501212022 72 272 6.0 13.0 0.00 0.00 0.00 62 1011.2
20260501210541 72 233 5.0 11.0 0.00 0.00 0.00 61 1011.4